Radiation Dose at Monitoring Post of Fukushima Daini Nuclear Power Station
Date,Time,MP-1(microSv/h),MP-2(microSv/h),MP-3(microSv/h),MP-4(microSv/h),MP-5(microSv/h),MP-6(microSv/h),MP-7(microSv/h),Wind Direction,Wind Velocity(m/s),Rain
2018/12/29,00:00,0.224,0.193,0.311,0.292,0.276,0.155,0.094,west,9.2,No
2018/12/29,00:10,0.223,0.193,0.310,0.291,0.277,0.156,0.095,west-northwest,6.5,No
2018/12/29,00:20,0.224,0.192,0.312,0.291,0.276,0.155,0.095,west-northwest,8.1,No
2018/12/29,00:30,0.224,0.193,0.311,0.291,0.277,0.155,0.094,west,9.8,No
2018/12/29,00:40,0.223,0.193,0.311,0.291,0.277,0.155,0.095,west-northwest,10.0,No
2018/12/29,00:50,0.224,0.193,0.312,0.292,0.277,0.155,0.094,west-northwest,7.1,No
2018/12/29,01:00,0.224,0.192,0.311,0.292,0.276,0.156,0.094,west,8.8,No
2018/12/29,01:10,0.223,0.192,0.312,0.292,0.276,0.155,0.094,west,9.8,No
2018/12/29,01:20,0.224,0.192,0.310,0.293,0.276,0.156,0.095,west-northwest,8.8,No
2018/12/29,01:30,0.224,0.192,0.311,0.291,0.277,0.155,0.095,west-northwest,10.0,No
2018/12/29,01:40,0.224,0.192,0.311,0.292,0.277,0.155,0.095,west-northwest,7.3,No
2018/12/29,01:50,0.224,0.192,0.310,0.291,0.277,0.155,0.094,west,10.6,No
2018/12/29,02:00,0.223,0.191,0.312,0.292,0.277,0.156,0.094,west,11.5,No
2018/12/29,02:10,0.223,0.192,0.311,0.292,0.278,0.155,0.094,west,8.4,No
2018/12/29,02:20,0.224,0.193,0.311,0.291,0.277,0.155,0.095,west,10.9,No
2018/12/29,02:30,0.224,0.192,0.311,0.291,0.277,0.155,0.094,west,9.2,No
2018/12/29,02:40,0.225,0.193,0.311,0.291,0.277,0.155,0.095,west,7.9,No
2018/12/29,02:50,0.224,0.193,0.311,0.291,0.278,0.155,0.094,west-northwest,8.8,No
2018/12/29,03:00,0.224,0.193,0.312,0.292,0.276,0.156,0.094,west,10.0,No
2018/12/29,03:10,0.225,0.193,0.312,0.291,0.277,0.154,0.094,west-northwest,9.2,No
2018/12/29,03:20,0.224,0.192,0.311,0.291,0.277,0.155,0.095,west-northwest,10.6,No
2018/12/29,03:30,0.223,0.192,0.311,0.292,0.276,0.155,0.095,west-northwest,13.4,No
2018/12/29,03:40,0.225,0.192,0.311,0.291,0.277,0.155,0.094,west-northwest,9.8,No
2018/12/29,03:50,0.224,0.191,0.312,0.291,0.276,0.155,0.093,west-northwest,11.4,No
2018/12/29,04:00,0.224,0.192,0.311,0.290,0.277,0.155,0.094,west-northwest,12.0,No
2018/12/29,04:10,0.224,0.192,0.312,0.291,0.278,0.155,0.094,west-northwest,8.5,No
2018/12/29,04:20,0.223,0.192,0.312,0.291,0.277,0.156,0.094,west-northwest,9.6,No
2018/12/29,04:30,0.224,0.193,0.312,0.292,0.277,0.154,0.094,west-northwest,8.1,No
2018/12/29,04:40,0.223,0.192,0.312,0.292,0.276,0.155,0.093,west-northwest,7.9,No
2018/12/29,04:50,0.224,0.192,0.312,0.292,0.276,0.154,0.095,west-northwest,8.2,No
2018/12/29,05:00,0.224,0.193,0.311,0.291,0.276,0.155,0.095,northwest,6.5,No
2018/12/29,05:10,0.224,0.193,0.312,0.292,0.277,0.156,0.094,northwest,4.6,No
2018/12/29,05:20,0.223,0.192,0.313,0.292,0.277,0.155,0.095,northwest,4.7,No
2018/12/29,05:30,0.224,0.192,0.312,0.291,0.276,0.154,0.094,northwest,4.4,No
2018/12/29,05:40,0.224,0.192,0.313,0.291,0.275,0.155,0.094,northwest,4.1,No
2018/12/29,05:50,0.223,0.192,0.312,0.292,0.276,0.155,0.094,northwest,3.3,No
2018/12/29,06:00,0.224,0.192,0.311,0.292,0.277,0.155,0.095,northwest,1.7,No
2018/12/29,06:10,0.224,0.193,0.312,0.292,0.277,0.154,0.094,west-northwest,0.9,No
2018/12/29,06:20,0.224,0.192,0.312,0.291,0.277,0.155,0.094,north-northwest,0.8,No
2018/12/29,06:30,0.223,0.193,0.311,0.291,0.277,0.155,0.094,north-northwest,0.7,No
2018/12/29,06:40,0.224,0.193,0.311,0.292,0.277,0.154,0.094,north,1.5,No
2018/12/29,06:50,0.224,0.193,0.311,0.291,0.276,0.156,0.094,north,2.5,No
2018/12/29,07:00,0.224,0.192,0.310,0.292,0.276,0.155,0.095,north,1.0,No
2018/12/29,07:10,0.224,0.192,0.311,0.291,0.276,0.155,0.095,-,CALM,No
2018/12/29,07:20,0.224,0.192,0.311,0.291,0.275,0.155,0.094,-,CALM,No
2018/12/29,07:30,0.223,0.193,0.311,0.292,0.275,0.155,0.095,-,CALM,No
2018/12/29,07:40,0.223,0.192,0.311,0.291,0.275,0.155,0.095,-,CALM,No
2018/12/29,07:50,0.224,0.192,0.311,0.292,0.275,0.155,0.095,east-southeast,0.6,No
2018/12/29,08:00,0.225,0.192,0.311,0.292,0.276,0.155,0.094,southeast,1.3,No
2018/12/29,08:10,0.225,0.192,0.312,0.291,0.277,0.155,0.094,south-southwest,2.0,No
2018/12/29,08:20,0.224,0.192,0.311,0.290,0.277,0.155,0.094,south-southwest,3.3,No
2018/12/29,08:30,0.223,0.193,0.311,0.291,0.276,0.155,0.095,southwest,2.2,No
2018/12/29,08:40,0.222,0.192,0.310,0.292,0.276,0.154,0.095,south-southwest,2.8,No
2018/12/29,08:50,0.224,0.192,0.310,0.291,0.277,0.154,0.094,south-southwest,2.5,No
2018/12/29,09:00,0.223,0.192,0.312,0.291,0.277,0.156,0.095,south,3.8,No
2018/12/29,09:10,0.224,0.192,0.312,0.291,0.277,0.154,0.095,south-southwest,3.2,No
2018/12/29,09:20,0.223,0.193,0.312,0.291,0.277,0.155,0.095,south-southwest,3.4,No
2018/12/29,09:30,0.223,0.191,0.311,0.293,0.276,0.155,0.094,south,3.0,No
2018/12/29,09:40,0.224,0.192,0.312,0.292,0.276,0.155,0.095,south,3.0,No
2018/12/29,09:50,0.224,0.192,0.311,0.293,0.277,0.156,0.094,south,3.7,No
2018/12/29,10:00,0.224,0.191,0.311,0.293,0.277,0.156,0.095,south,2.1,No
2018/12/29,10:10,0.224,0.193,0.311,0.292,0.277,0.156,0.095,southwest,3.0,No
2018/12/29,10:20,0.223,0.192,0.311,0.292,0.276,0.155,0.095,southwest,4.1,No
2018/12/29,10:30,0.224,0.193,0.311,0.292,0.275,0.155,0.095,southwest,2.8,No
2018/12/29,10:40,0.223,0.193,0.312,0.292,0.277,0.155,0.095,west-southwest,3.7,No
2018/12/29,10:50,0.225,0.192,0.312,0.292,0.276,0.156,0.095,west-southwest,5.6,No
2018/12/29,11:00,0.223,0.192,0.311,0.292,0.276,0.156,0.095,west,5.8,No
2018/12/29,11:10,0.223,0.192,0.311,0.292,0.276,0.155,0.095,west,8.1,No
2018/12/29,11:20,0.223,0.193,0.310,0.292,0.278,0.156,0.094,west,6.5,No
2018/12/29,11:30,0.223,0.191,0.311,0.292,0.277,0.156,0.095,west,7.1,No
2018/12/29,11:40,0.223,0.192,0.310,0.291,0.276,0.155,0.095,west,8.1,No
2018/12/29,11:50,0.224,0.192,0.310,0.291,0.279,0.156,0.094,west,8.1,No
2018/12/29,12:00,0.224,0.192,0.312,0.292,0.277,0.156,0.095,west,11.1,No
2018/12/29,12:10,0.223,0.191,0.312,0.292,0.276,0.156,0.094,west,7.7,No
2018/12/29,12:20,0.225,0.192,0.311,0.290,0.279,0.156,0.095,west,8.5,No
2018/12/29,12:30,0.224,0.193,0.310,0.292,0.279,0.156,0.094,west,8.1,No
2018/12/29,12:40,0.224,0.192,0.313,0.292,0.276,0.155,0.095,west,9.2,No
2018/12/29,12:50,0.225,0.192,0.309,0.291,0.278,0.156,0.095,west,9.8,No
2018/12/29,13:00,0.224,0.192,0.312,0.292,0.278,0.155,0.095,west,7.9,No
2018/12/29,13:10,0.224,0.192,0.312,0.293,0.277,0.156,0.094,west,10.9,No
2018/12/29,13:20,0.224,0.192,0.313,0.291,0.278,0.157,0.094,west,11.2,No
2018/12/29,13:30,0.225,0.192,0.312,0.293,0.278,0.156,0.095,west,8.8,No
2018/12/29,13:40,0.224,0.193,0.312,0.292,0.278,0.155,0.094,west,8.8,No
2018/12/29,13:50,0.224,0.193,0.312,0.291,0.278,0.155,0.095,west-northwest,7.5,No
2018/12/29,14:00,0.224,0.192,0.312,0.292,0.278,0.155,0.095,west,9.2,No
2018/12/29,14:10,0.225,0.192,0.312,0.292,0.280,0.155,0.095,west,9.5,Yes
2018/12/29,14:20,0.226,0.193,0.311,0.291,0.277,0.156,0.094,west-northwest,8.2,No
2018/12/29,14:30,0.224,0.193,0.313,0.291,0.277,0.156,0.095,west-northwest,10.6,No
2018/12/29,14:40,0.227,0.192,0.312,0.294,0.279,0.155,0.095,west,8.6,No
2018/12/29,14:50,0.225,0.192,0.313,0.292,0.279,0.155,0.095,west-northwest,8.5,No
2018/12/29,15:00,0.225,0.193,0.312,0.292,0.279,0.156,0.094,west-northwest,7.3,No
2018/12/29,15:10,0.225,0.193,0.311,0.293,0.278,0.156,0.094,west,7.5,No
2018/12/29,15:20,0.224,0.193,0.311,0.292,0.279,0.155,0.095,west-northwest,10.3,No
2018/12/29,15:30,0.224,0.192,0.312,0.292,0.278,0.155,0.094,west-northwest,10.3,No
2018/12/29,15:40,0.224,0.192,0.313,0.293,0.277,0.154,0.094,west,10.0,No
2018/12/29,15:50,0.225,0.193,0.313,0.292,0.277,0.156,0.095,west-northwest,9.5,No
2018/12/29,16:00,0.224,0.193,0.312,0.292,0.277,0.156,0.094,west,12.3,No
2018/12/29,16:10,0.225,0.193,0.311,0.294,0.277,0.155,0.095,west,12.8,No
2018/12/29,16:20,0.224,0.192,0.311,0.294,0.277,0.155,0.094,west,11.1,No
2018/12/29,16:30,0.225,0.192,0.312,0.292,0.278,0.157,0.094,west,11.7,No
2018/12/29,16:40,0.224,0.192,0.312,0.293,0.278,0.155,0.094,west,12.9,No
2018/12/29,16:50,0.223,0.191,0.313,0.292,0.277,0.156,0.094,west,16.2,No
2018/12/29,17:00,0.225,0.192,0.313,0.292,0.280,0.156,0.095,west-northwest,14.0,No
2018/12/29,17:10,0.224,0.193,0.312,0.292,0.278,0.156,0.095,west,11.4,No
2018/12/29,17:20,0.225,0.193,0.313,0.293,0.278,0.155,0.094,west,11.1,No
2018/12/29,17:30,0.224,0.193,0.313,0.292,0.279,0.155,0.094,west-northwest,12.8,No
2018/12/29,17:40,0.225,0.192,0.313,0.293,0.279,0.155,0.094,west-northwest,9.5,No
2018/12/29,17:50,0.224,0.192,0.314,0.292,0.279,0.156,0.095,west,11.4,No
2018/12/29,18:00,0.224,0.193,0.312,0.291,0.277,0.156,0.094,west-northwest,10.3,No
2018/12/29,18:10,0.225,0.193,0.314,0.292,0.277,0.156,0.094,west,10.6,No
2018/12/29,18:20,0.225,0.193,0.312,0.292,0.278,0.156,0.095,west-northwest,8.4,No
2018/12/29,18:30,0.225,0.194,0.312,0.293,0.278,0.156,0.095,west,5.9,No
2018/12/29,18:40,0.223,0.194,0.313,0.291,0.279,0.156,0.095,west,6.7,No
2018/12/29,18:50,0.224,0.194,0.312,0.293,0.278,0.156,0.094,west-northwest,6.4,No
2018/12/29,19:00,0.226,0.192,0.313,0.291,0.278,0.156,0.094,west-northwest,7.3,No
2018/12/29,19:10,0.224,0.192,0.314,0.293,0.278,0.156,0.095,west,10.3,No
2018/12/29,19:20,0.225,0.193,0.312,0.293,0.279,0.156,0.094,west-northwest,7.0,No
2018/12/29,19:30,0.225,0.193,0.313,0.292,0.279,0.155,0.094,west-northwest,7.5,No
2018/12/29,19:40,0.224,0.193,0.312,0.293,0.278,0.155,0.096,west-northwest,9.0,No
2018/12/29,19:50,0.225,0.193,0.312,0.292,0.277,0.156,0.094,west-northwest,10.4,No
2018/12/29,20:00,0.224,0.192,0.312,0.292,0.277,0.156,0.094,west-northwest,7.8,No
2018/12/29,20:10,0.225,0.192,0.312,0.293,0.277,0.155,0.096,west,9.5,No
2018/12/29,20:20,0.225,0.193,0.313,0.292,0.279,0.155,0.094,west-northwest,8.1,No
2018/12/29,20:30,0.223,0.194,0.312,0.292,0.278,0.156,0.095,west-northwest,7.0,No
2018/12/29,20:40,0.224,0.194,0.312,0.292,0.277,0.156,0.095,west-northwest,8.4,No
2018/12/29,20:50,0.224,0.192,0.312,0.291,0.277,0.156,0.095,west-northwest,4.2,No
2018/12/29,21:00,0.225,0.194,0.313,0.294,0.278,0.156,0.095,west-northwest,6.4,No
2018/12/29,21:10,0.225,0.193,0.313,0.293,0.277,0.156,0.094,northwest,5.4,No
2018/12/29,21:20,0.223,0.193,0.312,0.293,0.276,0.156,0.095,northwest,5.1,No
2018/12/29,21:30,0.224,0.193,0.312,0.291,0.277,0.156,0.094,northwest,2.9,No
2018/12/29,21:40,0.225,0.193,0.312,0.293,0.276,0.156,0.094,north-northwest,1.8,No
2018/12/29,21:50,0.224,0.193,0.312,0.293,0.278,0.155,0.094,north-northwest,3.2,No
2018/12/29,22:00,0.225,0.192,0.312,0.292,0.277,0.155,0.095,north-northwest,4.4,No
2018/12/29,22:10,0.224,0.192,0.313,0.291,0.277,0.157,0.095,north-northwest,5.4,No
2018/12/29,22:20,0.225,0.191,0.313,0.292,0.277,0.156,0.095,north-northwest,4.4,No
2018/12/29,22:30,0.225,0.192,0.313,0.291,0.276,0.156,0.095,north-northwest,4.4,No
2018/12/29,22:40,0.225,0.194,0.313,0.292,0.278,0.155,0.094,northwest,4.5,No
2018/12/29,22:50,0.225,0.192,0.312,0.292,0.277,0.156,0.094,northwest,4.1,No
2018/12/29,23:00,0.224,0.193,0.312,0.292,0.278,0.156,0.095,west-northwest,4.9,No
2018/12/29,23:10,0.226,0.193,0.312,0.291,0.277,0.155,0.094,west-northwest,4.5,No
2018/12/29,23:20,0.225,0.194,0.312,0.292,0.276,0.156,0.094,west-northwest,4.0,No
2018/12/29,23:30,0.224,0.193,0.313,0.294,0.277,0.156,0.094,west-northwest,5.8,No
2018/12/29,23:40,0.224,0.194,0.312,0.292,0.276,0.156,0.094,west-northwest,5.5,No
2018/12/29,23:50,0.224,0.192,0.312,0.293,0.276,0.155,0.095,west-northwest,6.5,No
